Regional Weather Roundup
Issued by NWS

Home | Current Version | Previous Version | Text Only | Print | Product List | Glossary Off
Versions: 1 2 3 4 5 6 7 8 9 10 11 12 13 14 15 16 17 18 19 20 21 22 23 24 25 26 27 28 29 30 31 32 33 34 35 36 37 38 39 40 41 42 43 44 45 46 47 48 49 50

201
ASUS43 KBIS 151102
RWRND

NORTH DAKOTA REGIONAL WEATHER ROUNDUP
NATIONAL WEATHER SERVICE BISMARCK ND
500 AM CST FRI DEC 15 2017

NOTE: "FAIR" INDICATES FEW OR NO CLOUDS BELOW 12,000 FEET WITH NO
SIGNIFICANT WEATHER AND/OR OBSTRUCTIONS TO VISIBILITY.


NDZ001>003-009>011-017-151200-
NORTHWEST NORTH DAKOTA

CITY           SKY/WX    TMP DP  RH WIND       PRES   REMARKS
WILLISTON      CLOUDY    28  24  85 S3        29.78F
MINOT          CLOUDY    30  23  75 SW7       29.80F
MINOT AFB      CLOUDY    28  23  80 SW6       29.78F
$$

NDZ018>021-031>035-040>046-151200-
SOUTHWEST NORTH DAKOTA

CITY           SKY/WX    TMP DP  RH WIND       PRES   REMARKS
BISMARCK       MOCLDY    28  23  81 W5        29.88F
DICKINSON      CLOUDY    27  23  85 SW6       29.79F
GARRISON         N/A     27  24  89 SW3       29.82F
HETTINGER ARPT CLOUDY    23  20  88 NW3       29.85F
$$

NDZ004>008-012>016-024-026-027-054-151200-
NORTHEAST NORTH DAKOTA

CITY           SKY/WX    TMP DP  RH WIND       PRES   REMARKS
GRAND FORKS    CLOUDY    19  13  77 E3        29.91F
GRND FRKS AFB  FLURRIES  18  11  74 CALM      29.91F
DEVILS LAKE    FLURRIES  22  20  92 S7        29.85F WCI  13
$$

NDZ022-023-025-028>030-036>039-047>053-151200-
SOUTHEAST NORTH DAKOTA

CITY           SKY/WX    TMP DP  RH WIND       PRES   REMARKS
FARGO          CLOUDY    20  17  88 N3        29.92F
JAMESTOWN      CLOUDY    23  21  92 SE7       29.86F WCI  15
$$





USA.gov is the U.S. government's official web portal to all federal, state and local government web resources and services.